period_start,C,m1,H,J0,J1,J2,J3,J4,J5,JA,JB,JC,JD,JJ,JK,JN,#
2016-04-13 00:02:23,0.20,4.27,0.00,20.49,25.38,28.44,14.73,50.42,1017.22,2040.99,2078.25,2195.36,2470.56,599.93,601.42,36.01,0000 0000 0000 0000 000000
2016-04-13 00:07:24,0.21,4.28,0.00,20.50,25.40,28.43,14.78,50.50,1017.21,2040.99,2075.79,2193.68,2468.69,600.19,601.65,36.06,0000 0000 0000 0000 000000
2016-04-13 00:12:26,0.18,4.29,0.00,20.53,25.40,28.43,14.76,50.31,1017.14,2040.98,2073.37,2192.13,2466.93,600.07,601.30,36.11,0000 0000 0000 0000 000000
2016-04-13 00:17:27,0.20,4.30,0.00,20.54,25.42,28.44,14.72,50.39,1017.16,2040.97,2071.09,2190.54,2465.21,599.62,600.99,36.16,0000 0000 0000 0000 000000
2016-04-13 00:22:28,0.17,4.31,0.00,20.56,25.42,28.47,14.79,50.71,1017.25,2040.87,2068.97,2188.98,2463.42,600.33,601.69,36.21,0000 0000 0000 0000 000000
2016-04-13 00:27:30,0.19,4.32,0.00,20.58,25.45,28.49,14.82,50.61,1017.23,2040.84,2066.56,2187.42,2461.61,600.21,601.51,36.27,0000 0000 0000 0000 000000
2016-04-13 00:32:31,0.17,4.33,0.00,20.59,25.45,28.48,14.84,50.59,1017.33,2040.77,2064.24,2185.91,2460.02,600.33,601.64,36.32,0000 0000 0000 0000 000000
2016-04-13 00:37:32,0.09,4.34,0.00,20.62,25.47,28.49,14.72,50.48,1017.39,2040.44,2062.59,2184.62,2458.55,600.10,601.34,36.37,0000 0000 0000 0000 000000
2016-04-13 00:42:33,0.13,4.34,0.00,20.64,25.47,28.50,14.71,50.48,1017.47,2040.15,2060.90,2183.43,2457.10,600.00,601.33,36.42,0000 0000 0000 0000 000000
2016-04-13 00:47:35,0.15,4.35,0.00,20.66,25.49,28.54,14.78,50.48,1017.44,2040.25,2059.17,2182.20,2455.77,600.21,601.48,36.47,0000 0000 0000 0000 000000
2016-04-13 00:52:36,0.13,4.36,0.00,20.68,25.50,28.53,14.71,50.38,1017.33,2040.17,2057.62,2181.03,2454.45,599.91,600.97,36.52,0000 0000 0000 0000 000000
2016-04-13 00:57:38,0.12,4.36,0.00,20.71,25.51,28.54,14.87,50.47,1017.34,2040.09,2056.02,2179.86,2453.12,600.30,601.33,36.57,0000 0000 0000 0000 000000
2016-04-13 01:02:39,0.13,4.37,0.00,20.75,25.52,28.57,14.70,50.23,1017.42,2040.04,2054.56,2178.77,2451.90,599.80,600.87,36.62,0000 0000 0000 0000 000000
2016-04-13 01:07:41,0.11,4.38,0.00,20.76,25.54,28.56,14.69,50.39,1017.50,2040.01,2053.20,2177.74,2450.72,599.56,600.69,36.67,0000 0000 0000 0000 000000
2016-04-13 01:12:42,0.12,4.38,0.00,20.79,25.56,28.59,14.77,50.47,1017.51,2040.00,2051.88,2176.70,2449.54,600.00,601.12,36.72,0000 0000 0000 0000 000000
2016-04-13 01:17:43,0.13,4.39,0.00,20.81,25.57,28.59,14.69,50.51,1017.45,2040.00,2050.53,2175.61,2448.36,600.12,601.09,36.77,0000 0000 0000 0000 000000
2016-04-13 01:22:44,0.12,4.39,0.00,20.85,25.60,28.60,14.64,50.36,1017.30,2040.00,2049.03,2174.63,2447.11,599.58,600.38,36.82,0000 0000 0000 0000 000000
2016-04-13 01:27:45,0.13,4.40,0.00,20.88,25.62,28.62,14.63,50.30,1017.25,2040.00,2047.58,2173.59,2445.89,600.08,600.79,36.87,0000 0000 0000 0000 000000
2016-04-13 01:32:47,0.13,4.41,0.00,20.90,25.63,28.66,14.66,50.23,1017.27,2039.99,2046.17,2172.43,2444.58,600.03,600.73,36.92,0000 0000 0000 0000 000000
2016-04-13 01:37:48,0.13,4.42,0.00,20.93,25.65,28.66,14.66,50.38,1017.29,2039.97,2044.49,2171.19,2443.21,599.86,600.51,36.97,0000 0000 0000 0000 000000
2016-04-13 01:42:49,0.12,4.42,0.00,20.96,25.67,28.67,14.66,50.37,1017.22,2039.97,2042.97,2170.02,2441.92,600.01,600.66,37.02,0000 0000 0000 0000 000000
2016-04-13 01:47:50,0.14,4.43,0.00,21.00,25.70,28.69,14.65,50.47,1017.18,2039.95,2041.62,2168.93,2440.66,599.90,600.28,37.07,0000 0000 0000 0000 000000
2016-04-13 01:52:51,0.11,4.44,0.00,21.02,25.72,28.72,14.68,50.59,1017.15,2039.84,2040.12,2167.85,2439.44,600.12,600.47,37.13,0000 0000 0000 0000 000000
2016-04-13 01:57:52,0.10,4.44,0.00,21.06,25.74,28.73,14.75,50.63,1017.13,2039.45,2038.45,2166.57,2438.06,600.08,600.34,37.18,0000 0000 0000 0000 000000
2016-04-13 02:02:54,0.12,4.45,0.00,21.10,25.76,28.75,14.72,50.56,1017.15,2039.13,2036.74,2165.34,2436.66,600.05,600.27,37.23,0000 0000 0000 0000 000000
2016-04-13 02:07:55,0.11,4.45,0.00,21.14,25.79,28.79,14.64,50.48,1017.15,2039.05,2035.20,2164.13,2435.34,600.00,600.13,37.28,0000 0000 0000 0000 000000
2016-04-13 02:12:57,0.15,4.46,0.00,21.19,25.81,28.80,14.72,50.55,1017.15,2039.02,2033.60,2162.91,2433.92,600.15,600.07,37.33,0000 0000 0000 0000 000000
2016-04-13 02:17:58,0.15,4.47,0.00,21.21,25.84,28.80,14.73,50.56,1017.17,2039.01,2031.96,2161.71,2432.60,600.42,600.34,37.38,0000 0000 0000 0000 000000
2016-04-13 02:22:59,0.14,4.47,0.00,21.26,25.86,28.83,14.72,50.58,1017.14,2039.00,2030.31,2160.50,2431.37,599.66,599.53,37.43,0000 0000 0000 0000 000000
2016-04-13 02:28:00,0.14,4.48,0.00,21.30,25.89,28.87,14.65,50.33,1017.13,2038.98,2028.72,2159.27,2429.95,600.02,599.75,37.48,0000 0000 0000 0000 000000
2016-04-13 02:33:02,0.14,4.49,0.00,21.33,25.91,28.89,14.69,50.42,1017.14,2038.99,2027.11,2158.08,2428.58,600.21,599.96,37.53,0000 0000 0000 0000 000000
2016-04-13 02:38:03,0.12,4.50,0.00,21.38,25.94,28.91,14.70,50.48,1017.13,2038.94,2025.69,2157.01,2427.43,600.08,599.78,37.58,0000 0000 0000 0000 000000
2016-04-13 02:43:05,0.11,4.50,0.00,21.43,25.97,28.94,14.66,50.34,1017.14,2038.85,2024.35,2155.93,2426.20,600.08,599.60,37.63,0000 0000 0000 0000 000000
2016-04-13 02:48:06,0.09,4.51,0.00,21.46,26.01,28.97,14.69,50.44,1017.25,2038.43,2022.87,2154.81,2424.88,600.19,599.68,37.68,0000 0000 0000 0000 000000
2016-04-13 02:53:07,0.11,4.51,0.00,21.50,26.04,29.00,14.63,50.28,1017.29,2038.07,2021.34,2153.63,2423.61,600.13,599.63,37.73,0000 0000 0000 0000 000000
2016-04-13 02:58:09,0.13,4.52,0.00,21.54,26.07,29.03,14.62,50.43,1017.23,2038.03,2019.81,2152.44,2422.28,599.69,599.04,37.78,0000 0000 0000 0000 000000
2016-04-13 03:03:10,0.13,4.53,0.00,21.58,26.11,29.04,14.60,50.29,1017.34,2038.00,2018.32,2151.29,2420.91,599.68,599.10,37.83,0000 0000 0000 0000 000000
2016-04-13 03:08:11,0.14,4.53,0.00,21.63,26.14,29.09,14.68,50.27,1017.28,2038.00,2016.82,2150.10,2419.62,600.14,599.34,37.88,0000 0000 0000 0000 000000
2016-04-13 03:13:13,0.13,4.54,0.00,21.67,26.18,29.12,14.62,50.29,1017.22,2038.00,2015.40,2148.90,2418.30,600.11,599.25,37.93,0000 0000 0000 0000 000000
2016-04-13 03:18:14,0.16,4.55,0.00,21.70,26.21,29.15,14.58,50.32,1017.25,2037.93,2013.69,2147.66,2416.90,599.73,598.82,37.98,0000 0000 0000 0000 000000
2016-04-13 03:23:15,0.12,4.55,0.00,21.75,26.25,29.17,14.63,50.48,1017.14,2037.83,2012.21,2146.54,2415.66,600.09,598.91,38.03,0000 0000 0000 0000 000000
2016-04-13 03:28:16,0.10,4.56,0.00,21.79,26.29,29.22,14.65,50.53,1017.15,2037.44,2010.69,2145.36,2414.31,600.07,598.89,38.09,0000 0000 0000 0000 000000
2016-04-13 03:33:18,0.09,4.56,0.00,21.83,26.33,29.25,14.65,50.47,1017.25,2037.07,2009.17,2144.16,2412.94,600.01,598.71,38.14,0000 0000 0000 0000 000000
2016-04-13 03:38:19,0.15,4.57,0.00,21.88,26.36,29.29,14.65,50.46,1017.37,2037.00,2007.61,2142.90,2411.60,600.06,598.84,38.19,0000 0000 0000 0000 000000
2016-04-13 03:43:20,0.15,4.58,0.00,21.92,26.40,29.32,14.69,50.55,1017.33,2037.00,2005.91,2141.63,2410.19,600.08,598.68,38.24,0000 0000 0000 0000 000000
2016-04-13 03:48:21,0.14,4.59,0.00,21.98,26.44,29.35,14.62,50.46,1017.18,2036.99,2004.40,2140.40,2408.74,600.06,598.47,38.29,0000 0000 0000 0000 000000
2016-04-13 03:53:23,0.14,4.59,0.00,22.02,26.47,29.40,14.67,50.42,1017.26,2036.94,2002.74,2139.12,2407.38,600.15,598.68,38.34,0000 0000 0000 0000 000000
2016-04-13 03:58:24,0.12,4.60,0.00,22.06,26.51,29.43,14.61,50.37,1017.47,2036.71,2001.10,2137.84,2405.90,599.77,598.28,38.39,0000 0000 0000 0000 000000
2016-04-13 04:03:25,0.09,4.61,0.00,22.11,26.55,29.47,14.61,50.37,1017.56,2036.18,1999.59,2136.61,2404.55,600.03,598.42,38.44,0000 0000 0000 0000 000000
2016-04-13 04:08:26,0.13,4.61,0.00,22.15,26.58,29.50,14.67,50.42,1017.56,2036.04,1997.92,2135.41,2403.12,600.34,598.57,38.49,0000 0000 0000 0000 000000
2016-04-13 04:13:28,0.15,4.62,0.00,22.19,26.62,29.55,14.66,50.29,1017.55,2036.00,1996.38,2134.07,2401.66,600.02,598.24,38.54,0000 0000 0000 0000 000000
2016-04-13 04:18:29,0.16,4.63,0.00,22.23,26.66,29.59,14.56,50.33,1017.58,2036.00,1994.71,2132.74,2400.28,599.76,597.92,38.59,0000 0000 0000 0000 000000
2016-04-13 04:23:30,0.15,4.64,0.00,22.27,26.70,29.62,14.68,50.37,1017.58,2035.96,1993.06,2131.49,2398.73,600.08,597.92,38.64,0000 0000 0000 0000 000000
2016-04-13 04:28:32,0.12,4.64,0.00,22.31,26.73,29.66,14.62,50.30,1017.58,2035.79,1991.37,2130.14,2397.29,599.97,597.85,38.69,0000 0000 0000 0000 000000
2016-04-13 04:33:33,0.10,4.65,0.00,22.35,26.77,29.69,14.65,50.18,1017.59,2035.31,1989.75,2128.90,2395.83,600.28,598.17,38.74,0000 0000 0000 0000 000000
2016-04-13 04:38:35,0.14,4.66,0.00,22.38,26.81,29.73,14.55,50.10,1017.58,2035.05,1988.06,2127.61,2394.36,599.92,597.75,38.79,0000 0000 0000 0000 000000
2016-04-13 04:43:36,0.14,4.66,0.00,22.43,26.84,29.78,14.56,50.36,1017.59,2035.00,1986.48,2126.34,2392.89,600.16,597.90,38.84,0000 0000 0000 0000 000000
2016-04-13 04:48:37,0.16,4.67,0.00,22.47,26.87,29.82,14.57,50.34,1017.59,2035.00,1984.75,2125.02,2391.55,599.90,597.78,38.90,0000 0000 0000 0000 000000
2016-04-13 04:53:38,0.16,4.68,0.00,22.50,26.91,29.84,14.59,50.42,1017.59,2034.99,1983.16,2123.72,2390.00,599.74,597.41,38.95,0000 0000 0000 0000 000000
2016-04-13 04:58:39,0.15,4.69,0.00,22.53,26.94,29.88,14.64,50.42,1017.59,2034.97,1981.52,2122.40,2388.53,599.83,597.38,39.00,0000 0000 0000 0000 000000
2016-04-13 05:03:41,0.13,4.70,0.00,22.57,26.98,29.91,14.59,50.36,1017.59,2034.81,1979.78,2121.07,2386.99,600.01,597.68,39.05,0000 0000 0000 0000 000000
2016-04-13 05:08:42,0.11,4.70,0.00,22.61,27.01,29.95,14.65,50.39,1017.59,2034.33,1978.02,2119.70,2385.56,600.34,597.79,39.10,0000 0000 0000 0000 000000
2016-04-13 05:13:43,0.13,4.71,0.00,22.65,27.05,29.99,14.60,50.27,1017.59,2034.06,1976.31,2118.39,2384.04,599.79,597.03,39.15,0000 0000 0000 0000 000000
2016-04-13 05:18:44,0.17,4.71,0.00,22.69,27.08,30.02,14.55,50.31,1017.59,2034.00,1974.59,2116.99,2382.55,600.00,597.30,39.20,0000 0000 0000 0000 000000
2016-04-13 05:23:45,0.18,4.72,0.00,22.71,27.12,30.06,14.61,50.34,1017.59,2034.00,1972.76,2115.65,2380.92,599.99,597.18,39.25,0000 0000 0000 0000 000000
2016-04-13 05:28:46,0.15,4.73,0.00,22.76,27.16,30.10,14.58,50.19,1017.59,2033.99,1971.08,2114.34,2379.48,599.80,596.77,39.30,0000 0000 0000 0000 000000
2016-04-13 05:33:48,0.17,4.74,0.00,22.78,27.19,30.13,14.54,50.30,1017.59,2033.97,1969.27,2112.91,2377.86,599.88,596.98,39.35,0000 0000 0000 0000 000000
2016-04-13 05:38:49,0.14,4.75,0.00,22.83,27.23,30.16,14.55,50.37,1017.59,2033.73,1967.37,2111.49,2376.33,599.96,596.85,39.40,0000 0000 0000 0000 000000
2016-04-13 05:43:50,0.12,4.76,0.00,22.86,27.26,30.19,14.59,50.29,1017.59,2033.28,1965.34,2110.17,2374.64,599.86,596.69,39.45,0000 0000 0000 0000 000000
2016-04-13 05:48:52,0.17,4.76,0.00,22.90,27.30,30.24,14.59,50.37,1017.61,2033.03,1963.61,2108.73,2373.04,599.91,596.96,39.50,0000 0000 0000 0000 000000
2016-04-13 05:53:53,0.15,4.77,0.00,22.93,27.34,30.27,14.69,50.48,1017.61,2033.00,1961.93,2107.50,2371.62,599.91,596.75,39.55,0000 0000 0000 0000 000000
2016-04-13 05:58:54,0.15,4.78,0.00,22.98,27.37,30.29,14.51,50.38,1017.61,2033.00,1960.18,2106.07,2370.02,599.78,596.45,39.60,0000 0000 0000 0000 000000
2016-04-13 06:03:55,0.19,4.79,0.00,23.02,27.41,30.33,14.56,50.42,1017.60,2033.00,1958.34,2104.64,2368.45,600.07,596.66,39.65,0000 0000 0000 0000 000000
2016-04-13 06:08:57,0.15,4.80,0.00,23.04,27.44,30.37,14.51,50.27,1017.60,2032.92,1956.45,2103.26,2366.93,599.87,596.43,39.70,0000 0000 0000 0000 000000
2016-04-13 06:13:58,0.09,4.80,0.00,23.09,27.48,30.40,14.60,50.14,1017.60,2032.35,1954.70,2101.82,2365.46,599.92,596.31,39.75,0000 0000 0000 0000 000000
2016-04-13 06:18:59,0.14,4.81,0.00,23.12,27.51,30.43,14.61,50.13,1017.61,2032.06,1952.97,2100.48,2363.93,599.97,596.35,39.80,0000 0000 0000 0000 000000
2016-04-13 06:24:01,0.15,4.82,0.00,23.16,27.55,30.46,14.59,50.24,1017.60,2032.01,1951.32,2099.22,2362.53,600.07,596.26,39.86,0000 0000 0000 0000 000000
2016-04-13 06:29:02,0.21,4.83,0.00,23.19,27.58,30.50,14.61,50.09,1017.59,2032.00,1949.24,2097.66,2360.77,600.16,596.33,39.91,0000 0000 0000 0000 000000
2016-04-13 06:34:03,0.22,4.84,0.00,23.23,27.61,30.52,14.57,50.28,1017.60,2032.00,1947.01,2095.95,2358.88,599.92,596.13,39.96,0000 0000 0000 0000 000000
2016-04-13 06:39:05,0.22,4.85,0.00,23.26,27.65,30.56,14.47,49.98,1017.60,2031.98,1944.63,2094.10,2356.81,599.54,595.64,40.01,0000 0000 0000 0000 000000
2016-04-13 06:44:06,0.18,4.86,0.00,23.30,27.68,30.60,14.54,50.09,1017.62,2031.91,1942.59,2092.50,2355.03,599.98,595.99,40.06,0000 0000 0000 0000 000000
2016-04-13 06:49:07,0.12,4.87,0.00,23.34,27.71,30.64,14.52,50.20,1017.62,2031.45,1940.62,2090.97,2353.33,600.07,595.93,40.11,0000 0000 0000 0000 000000
2016-04-13 06:54:08,0.15,4.87,0.00,23.37,27.75,30.68,14.47,50.08,1017.64,2031.13,1938.72,2089.58,2351.73,600.00,595.89,40.16,0000 0000 0000 0000 000000
2016-04-13 06:59:09,0.20,4.88,0.00,23.41,27.78,30.71,14.51,50.17,1017.65,2031.02,1936.59,2087.92,2349.88,600.05,595.84,40.21,0000 0000 0000 0000 000000
2016-04-13 07:04:10,0.25,4.90,0.00,23.46,27.82,30.74,14.60,50.17,1017.79,2031.00,1933.98,2085.92,2347.65,600.14,595.81,40.26,0000 0000 0000 0000 000000
2016-04-13 07:09:12,0.26,4.91,0.00,23.50,27.86,30.77,14.53,50.11,1017.97,2030.99,1931.31,2083.87,2345.36,599.76,595.59,40.31,0000 0000 0000 0000 000000
2016-04-13 07:14:13,0.24,4.92,0.00,23.54,27.89,30.80,14.52,50.22,1017.99,2030.98,1928.78,2081.92,2343.21,599.79,595.59,40.36,0000 0000 0000 0000 000000
2016-04-13 07:19:15,0.20,4.93,0.00,23.58,27.92,30.83,14.53,50.03,1018.06,2030.88,1926.50,2080.15,2341.23,600.15,595.94,40.41,0000 0000 0000 0000 000000
2016-04-13 07:24:16,0.14,4.94,0.00,23.61,27.96,30.86,14.56,50.34,1018.08,2030.37,1924.53,2078.57,2339.48,600.17,595.78,40.46,0000 0000 0000 0000 000000
2016-04-13 07:29:17,0.17,4.95,0.00,23.66,28.00,30.90,14.52,50.35,1018.08,2030.07,1922.45,2076.94,2337.67,600.09,595.55,40.51,0000 0000 0000 0000 000000
2016-04-13 07:34:18,0.22,4.96,0.00,23.69,28.03,30.94,14.47,50.34,1018.08,2030.01,1920.21,2075.17,2335.66,599.45,594.92,40.56,0000 0000 0000 0000 000000
2016-04-13 07:39:19,0.22,4.97,0.00,23.74,28.07,30.97,14.60,50.37,1018.08,2030.00,1918.05,2073.47,2333.73,600.21,595.67,40.61,0000 0000 0000 0000 000000
2016-04-13 07:44:21,0.16,4.98,0.00,23.79,28.11,31.01,14.53,50.42,1018.08,2029.99,1916.29,2072.04,2332.10,600.05,595.29,40.66,0000 0000 0000 0000 000000
2016-04-13 07:49:22,0.18,4.99,0.00,23.83,28.14,31.05,14.57,50.17,1018.08,2029.98,1914.59,2070.69,2330.62,599.99,595.19,40.71,0000 0000 0000 0000 000000
2016-04-13 07:54:24,0.15,5.00,0.00,23.87,28.17,31.09,14.53,50.16,1018.08,2029.82,1912.76,2069.28,2329.04,600.07,595.26,40.77,0000 0000 0000 0000 000000
2016-04-13 07:59:25,0.13,5.00,0.00,23.92,28.19,31.13,14.51,50.16,1018.08,2029.23,1910.87,2067.72,2327.29,600.35,595.36,40.82,0000 0000 0000 0000 000000
2016-04-13 08:04:27,0.22,5.01,0.00,23.98,28.23,31.16,14.53,50.13,1018.09,2029.03,1908.49,2065.95,2325.30,600.15,595.08,40.87,0000 0000 0000 0000 000000
2016-04-13 08:09:28,0.21,5.02,0.00,24.02,28.26,31.20,14.46,50.13,1018.09,2029.00,1906.27,2064.25,2323.36,599.90,594.78,40.92,0000 0000 0000 0000 000000
2016-04-13 08:14:29,0.23,5.04,0.00,24.07,28.29,31.24,14.49,50.17,1018.10,2029.00,1903.99,2062.47,2321.36,599.73,594.41,40.97,0000 0000 0000 0000 000000
2016-04-13 08:19:31,0.21,5.05,0.00,24.11,28.32,31.28,14.56,50.08,1018.14,2028.99,1901.77,2060.75,2319.57,600.33,595.07,41.02,0000 0000 0000 0000 000000
2016-04-13 08:24:32,0.15,5.06,0.00,24.14,28.36,31.32,14.50,50.20,1018.20,2028.93,1900.05,2059.45,2318.04,600.16,594.81,41.07,0000 0000 0000 0000 000000
2016-04-13 08:29:34,0.10,5.07,0.00,24.18,28.39,31.36,14.56,50.09,1018.25,2028.64,1898.57,2058.30,2316.75,600.24,594.84,41.12,0000 0000 0000 0000 000000
2016-04-13 08:34:35,0.09,5.07,0.00,24.21,28.43,31.41,14.54,50.02,1018.27,2028.13,1897.17,2057.21,2315.50,600.18,594.74,41.17,0000 0000 0000 0000 000000
2016-04-13 08:39:36,0.22,5.08,0.00,24.25,28.46,31.44,14.48,49.90,1018.41,2028.01,1894.95,2055.49,2313.56,599.89,594.32,41.22,0000 0000 0000 0000 000000
2016-04-13 08:44:38,0.23,5.09,0.00,24.29,28.51,31.48,14.47,49.79,1018.42,2028.00,1892.66,2053.73,2311.60,599.65,594.16,41.27,0000 0000 0000 0000 000000
2016-04-13 08:49:39,0.24,5.10,0.00,24.31,28.54,31.50,14.43,49.60,1018.47,2027.99,1890.37,2051.96,2309.58,599.47,593.96,41.32,0000 0000 0000 0000 000000
2016-04-13 08:54:41,0.32,5.12,0.00,24.33,28.58,31.54,14.50,49.67,1018.47,2027.96,1887.23,2049.57,2306.87,599.82,594.20,41.37,0000 0000 0000 0000 000000
2016-04-13 08:59:42,0.31,5.14,0.00,24.36,28.61,31.57,14.53,49.98,1018.54,2027.74,1883.55,2046.92,2303.83,599.85,594.42,41.42,0000 0000 0000 0000 000000
2016-04-13 09:04:43,0.31,5.15,0.00,24.37,28.64,31.61,14.54,49.87,1018.57,2027.26,1879.80,2044.41,2300.94,600.20,594.61,41.47,0000 0000 0000 0000 000000
2016-04-13 09:09:45,0.37,5.17,0.00,24.39,28.66,31.63,14.51,49.71,1018.57,2027.03,1876.01,2041.60,2297.80,600.28,594.67,41.52,0000 0000 0000 0000 000000
2016-04-13 09:14:46,0.42,5.19,0.00,24.40,28.69,31.66,14.55,49.88,1018.57,2027.00,1871.97,2038.63,2294.43,600.02,594.40,41.57,0000 0000 0000 0000 000000
2016-04-13 09:19:47,0.40,5.21,0.00,24.41,28.70,31.69,14.57,49.73,1018.57,2027.00,1867.64,2035.53,2291.03,599.90,594.26,41.63,0000 0000 0000 0000 000000
2016-04-13 09:24:49,0.40,5.23,0.00,24.42,28.72,31.72,14.49,49.77,1018.57,2026.98,1863.70,2032.60,2287.71,599.86,594.10,41.68,0000 0000 0000 0000 000000
2016-04-13 09:29:50,0.43,5.25,0.00,24.43,28.74,31.74,14.54,49.80,1018.57,2026.96,1859.42,2029.48,2284.19,599.99,594.27,41.73,0000 0000 0000 0000 000000
2016-04-13 09:34:52,0.40,5.27,0.00,24.44,28.75,31.77,14.43,49.56,1018.57,2026.90,1855.22,2026.47,2280.91,600.07,594.42,41.78,0000 0000 0000 0000 000000
2016-04-13 09:39:53,0.39,5.29,0.00,24.45,28.77,31.78,14.47,49.68,1018.57,2026.65,1851.13,2023.43,2277.50,599.85,594.09,41.83,0000 0000 0000 0000 000000
2016-04-13 09:44:54,0.39,5.31,0.00,24.47,28.77,31.83,14.52,49.72,1018.57,2026.33,1846.96,2020.43,2274.15,599.90,594.17,41.88,0000 0000 0000 0000 000000
2016-04-13 09:49:56,0.40,5.33,0.00,24.48,28.80,31.86,14.50,49.52,1018.58,2026.15,1842.77,2017.41,2270.82,599.91,594.13,41.93,0000 0000 0000 0000 000000
2016-04-13 09:54:57,0.35,5.35,0.00,24.49,28.80,31.86,14.54,49.91,1018.59,2026.07,1838.93,2014.57,2267.62,600.23,594.42,41.98,0000 0000 0000 0000 000000
2016-04-13 09:59:58,0.37,5.37,0.00,24.50,28.81,31.89,14.57,49.91,1018.59,2026.02,1835.49,2011.94,2264.62,600.48,594.79,42.03,0000 0000 0000 0000 000000
2016-04-13 10:04:59,0.40,5.39,0.00,24.50,28.82,31.91,14.57,50.02,1018.59,2026.00,1831.66,2009.15,2261.53,600.00,594.15,42.08,0000 0000 0000 0000 000000
2016-04-13 10:10:01,0.42,5.41,0.00,24.50,28.82,31.93,14.44,49.83,1018.61,2026.00,1827.56,2006.15,2258.21,599.55,593.75,42.13,0000 0000 0000 0000 000000
2016-04-13 10:15:02,0.38,5.43,0.00,24.50,28.83,31.95,14.49,49.63,1018.62,2026.00,1823.56,2003.40,2255.16,599.60,593.86,42.18,0000 0000 0000 0000 000000
2016-04-13 10:20:04,0.36,5.45,0.00,24.49,28.84,31.96,14.41,49.57,1018.63,2026.00,1819.94,2000.84,2252.35,599.63,593.92,42.23,0000 0000 0000 0000 000000
2016-04-13 10:25:05,0.32,5.47,0.00,24.49,28.85,31.97,14.50,49.38,1018.65,2026.00,1816.67,1998.45,2249.66,599.97,594.17,42.28,0000 0000 0000 0000 000000
2016-04-13 10:30:06,0.37,5.48,0.00,24.48,28.85,31.99,14.59,49.64,1018.66,2025.99,1813.35,1995.98,2246.87,600.12,594.35,42.33,0000 0000 0000 0000 000000
2016-04-13 10:35:07,0.41,5.50,0.00,24.48,28.85,32.01,14.53,49.44,1018.71,2025.99,1809.21,1993.18,2243.78,600.09,594.41,42.38,0000 0000 0000 0000 000000
2016-04-13 10:40:09,0.45,5.52,0.00,24.48,28.85,32.02,14.53,49.73,1018.72,2025.99,1805.10,1990.15,2240.45,600.30,594.63,42.43,0000 0000 0000 0000 000000
2016-04-13 10:45:10,0.48,5.55,0.00,24.46,28.85,32.02,14.53,49.67,1018.82,2025.98,1800.48,1986.73,2236.77,599.84,594.24,42.48,0000 0000 0000 0000 000000
2016-04-13 10:50:11,0.48,5.57,0.00,24.47,28.86,32.03,14.53,49.69,1018.91,2025.98,1795.77,1983.49,2233.14,599.93,594.39,42.53,0000 0000 0000 0000 000000
2016-04-13 10:55:12,0.41,5.60,0.00,24.48,28.86,32.04,14.41,49.57,1018.96,2025.99,1791.58,1980.56,2229.75,599.74,594.21,42.58,0000 0000 0000 0000 000000
2016-04-13 11:00:14,0.39,5.62,0.00,24.50,28.87,32.02,14.50,49.65,1018.98,2025.99,1787.80,1977.82,2226.73,599.47,594.00,42.63,0000 0000 0000 0000 000000
2016-04-13 11:05:15,0.38,5.64,0.00,24.54,28.87,32.03,14.47,49.52,1019.00,2025.99,1784.13,1975.18,2223.75,600.28,594.58,42.69,0000 0000 0000 0000 000000
2016-04-13 11:10:16,0.35,5.66,0.00,24.51,28.87,32.02,14.51,49.67,1018.96,2025.98,1780.76,1972.59,2220.93,600.06,594.43,42.74,0000 0000 0000 0000 000000
2016-04-13 11:15:17,0.33,5.67,0.00,24.45,28.87,32.00,14.48,49.46,1018.99,2025.95,1777.94,1970.25,2218.17,599.90,594.36,42.79,0000 0000 0000 0000 000000
2016-04-13 11:20:19,0.47,5.69,0.00,24.37,28.87,32.00,14.55,49.62,1018.92,2025.97,1773.64,1967.28,2214.89,600.03,594.67,42.84,0000 0000 0000 0000 000000
2016-04-13 11:25:20,0.50,5.72,0.00,24.29,28.86,31.98,14.51,49.95,1018.95,2025.91,1768.77,1963.72,2210.90,600.07,594.89,42.89,0000 0000 0000 0000 000000
2016-04-13 11:30:21,0.57,5.75,0.00,24.22,28.85,31.99,14.53,49.77,1019.04,2025.92,1763.68,1960.01,2206.78,599.82,594.87,42.94,0000 0000 0000 0000 000000
2016-04-13 11:35:23,0.57,5.77,0.00,24.16,28.85,31.97,14.63,49.67,1019.05,2025.85,1758.18,1956.17,2202.52,600.39,595.34,42.99,0000 0000 0000 0000 000000
2016-04-13 11:40:24,0.57,5.80,0.00,24.11,28.82,31.97,14.51,49.48,1019.04,2025.94,1752.77,1952.42,2198.43,600.04,595.23,43.04,0000 0000 0000 0000 000000
2016-04-13 11:45:25,0.48,5.83,0.00,24.06,28.81,31.96,14.54,49.62,1019.03,2025.97,1748.12,1949.11,2194.77,600.10,595.37,43.09,0000 0000 0000 0000 000000
2016-04-13 11:50:26,0.35,5.85,0.00,23.99,28.80,31.96,14.62,49.86,1019.04,2025.98,1744.84,1946.45,2191.83,600.19,595.62,43.14,0000 0000 0000 0000 000000
2016-04-13 11:55:27,0.44,5.87,0.00,23.96,28.77,31.94,14.61,49.89,1019.03,2025.97,1741.10,1943.74,2188.74,599.83,595.36,43.19,0000 0000 0000 0000 000000
2016-04-13 12:00:28,0.52,5.90,0.00,23.92,28.76,31.92,14.51,49.73,1019.02,2025.99,1736.30,1940.41,2185.08,599.57,595.22,43.24,0000 0000 0000 0000 000000
2016-04-13 12:05:30,0.50,5.92,0.00,23.87,28.73,31.90,14.57,49.69,1019.03,2025.99,1731.68,1937.13,2181.45,600.41,596.12,43.29,0000 0000 0000 0000 000000
2016-04-13 12:10:31,0.48,5.95,0.00,23.82,28.71,31.89,14.58,49.92,1019.04,2025.99,1727.39,1933.89,2177.86,599.89,595.70,43.34,0000 0000 0000 0000 000000
2016-04-13 12:15:32,0.43,5.97,0.00,23.78,28.69,31.87,14.59,50.10,1019.03,2025.99,1723.76,1930.96,2174.52,600.06,596.02,43.39,0000 0000 0000 0000 000000
2016-04-13 12:20:33,0.53,6.00,0.00,23.73,28.66,31.87,14.61,49.98,1019.01,2025.99,1718.85,1927.64,2170.94,599.92,595.75,43.44,0000 0000 0000 0000 000000
2016-04-13 12:25:35,0.51,6.02,0.00,23.68,28.63,31.82,14.64,50.05,1018.89,2026.02,1714.10,1924.32,2167.30,600.01,596.07,43.49,0000 0000 0000 0000 000000
2016-04-13 12:30:36,0.47,6.05,0.00,23.64,28.61,31.80,14.58,49.72,1018.71,2026.06,1709.91,1921.17,2163.79,599.77,595.75,43.54,0000 0000 0000 0000 000000
2016-04-13 12:35:37,0.44,6.07,0.00,23.60,28.58,31.79,14.65,50.12,1018.65,2026.10,1706.28,1918.33,2160.41,600.10,596.18,43.59,0000 0000 0000 0000 000000
2016-04-13 12:40:38,0.53,6.10,0.00,23.55,28.55,31.77,14.64,50.11,1018.68,2026.33,1701.80,1915.15,2156.89,600.50,596.62,43.65,0000 0000 0000 0000 000000
2016-04-13 12:45:39,0.55,6.12,0.00,23.51,28.52,31.76,14.60,50.12,1018.66,2026.81,1697.36,1911.97,2153.31,599.94,596.15,43.70,0000 0000 0000 0000 000000
2016-04-13 12:50:40,0.48,6.15,0.00,23.44,28.49,31.74,14.69,50.05,1018.61,2026.92,1693.23,1908.91,2149.89,600.59,596.98,43.75,0000 0000 0000 0000 000000
2016-04-13 12:55:42,0.49,6.17,0.00,23.41,28.46,31.70,14.61,50.03,1018.60,2026.98,1688.96,1905.82,2146.42,600.17,596.47,43.80,0000 0000 0000 0000 000000